Edinburgh Airport, United Kingdom

9:06 AM BST on July 28, 2017 (GMT +0100)
Edinburgh Airport

Weather History for EGPH - January, 2013

Change the Weather History Date:

Wednesday, January 9, 2013

  Actual Average Record
Temperature  
Mean Temperature 42 °F -  
Max Temperature 46 °F 43 °F 57 °F (1998)
Min Temperature 37 °F 33 °F 24 °F (1999)
Degree Days  
Heating Degree Days 24    
Moisture  
Dew Point 38 °F    
Average Humidity 90    
Maximum Humidity 100    
Minimum Humidity 81    
Precipitation  
Precipitation 0.00 in 0.07 in - ()
Sea Level Pressure  
Sea Level Pressure 30.10 in    
Wind  
Wind Speed 8 mph ()    
Max Wind Speed 14 mph    
Max Gust Speed -    
Visibility 6.2 miles    
Events      
Averages and records for this station are not official NWS values.
T = Trace of Precipitation, MM = Missing Value Source: Averaged Metar Reports

Daily Weather History Graph

Daily Weather History Graph

Search for Another Location

Airport or City:

Trip Planner

Search our weather history database for the weather conditions in past years. The results will help you decide how hot, cold, wet, or windy it might be!

Date:

Astronomy

Jan. 09, 2013 Rise Set
Actual Time 8:39 AM GMT 4:01 PM GMT
Civil Twilight 7:54 AM GMT 4:47 PM GMT
Nautical Twilight 7:06 AM GMT 5:35 PM GMT
Astronomical Twilight 6:21 AM GMT 6:20 PM GMT
Moon 6:04 AM GMT (1/9) 1:47 PM GMT (1/9)
Length of Visible Light 8h 52m
Length of Day
7h 21m
Waning Crescent, 8% of the Moon is Illuminated
Jan 9
Waning Crescent
Jan 11
New
Jan 18
First Quarter
Jan 27
Full
Feb 3
Last Quarter

Hourly Weather History & Observations

Time (GMT) Temp. Windchill Dew Point Humidity Pressure Visibility Wind Dir Wind Speed Gust Speed Precip Events Conditions
12:20 AM 39.2 °F 33.0 °F 37.4 °F 93% 30.15 in 6.2 mi WSW 9.2 mph - N/A   Partly Cloudy
12:50 AM 39.2 °F 33.0 °F 37.4 °F 93% 30.15 in - WSW 9.2 mph - N/A   Clear
1:20 AM 41.0 °F 37.1 °F 39.2 °F 93% 30.12 in 6.2 mi WSW 5.8 mph - N/A   Partly Cloudy
1:50 AM 41.0 °F 35.8 °F 39.2 °F 93% 30.15 in 6.2 mi WSW 8.1 mph - N/A   Scattered Clouds
2:20 AM 39.2 °F 33.6 °F 37.4 °F 93% 30.12 in 6.2 mi WSW 8.1 mph - N/A   Partly Cloudy
2:50 AM 39.2 °F 33.6 °F 37.4 °F 93% 30.15 in 6.2 mi WSW 8.1 mph - N/A   Partly Cloudy
3:20 AM 39.2 °F 34.2 °F 37.4 °F 93% 30.12 in 6.2 mi WSW 6.9 mph - N/A   Unknown
3:50 AM 39.2 °F 32.5 °F 35.6 °F 87% 30.12 in 6.2 mi WSW 10.4 mph - N/A   Unknown
4:20 AM 39.2 °F 31.6 °F 37.4 °F 93% 30.12 in - WSW 12.7 mph - N/A   Clear
4:50 AM 39.2 °F 31.6 °F 37.4 °F 93% 30.12 in - WSW 12.7 mph - N/A   Clear
5:20 AM 37.4 °F 30.8 °F 35.6 °F 93% 30.12 in - WSW 9.2 mph - N/A   Clear
5:50 AM 39.2 °F 33.0 °F 37.4 °F 93% 30.12 in - WSW 9.2 mph - N/A   Clear
6:20 AM 39.2 °F 32.5 °F 37.4 °F 93% 30.12 in - WSW 10.4 mph - N/A   Clear
6:50 AM 39.2 °F 34.2 °F 37.4 °F 93% 30.12 in - SW 6.9 mph - N/A   Clear
7:20 AM 37.4 °F 32.1 °F 37.4 °F 100% 30.12 in - WSW 6.9 mph - N/A   Clear
7:50 AM 39.2 °F 33.6 °F 37.4 °F 93% 30.12 in 6.2 mi West 8.1 mph - N/A   Scattered Clouds
8:20 AM 39.2 °F 32.5 °F 37.4 °F 93% 30.12 in 6.2 mi WSW 10.4 mph - N/A   Scattered Clouds
8:50 AM 39.2 °F 32.0 °F 37.4 °F 93% 30.12 in 6.2 mi WSW 11.5 mph - N/A   Partly Cloudy
9:20 AM 41.0 °F 33.9 °F 37.4 °F 87% 30.12 in 6.2 mi WSW 12.7 mph - N/A   Partly Cloudy
9:50 AM 41.0 °F 34.7 °F 37.4 °F 87% 30.12 in 6.2 mi WSW 10.4 mph - N/A   Partly Cloudy
10:20 AM 41.0 °F 34.3 °F 39.2 °F 93% 30.12 in 6.2 mi WSW 11.5 mph - N/A   Partly Cloudy
10:50 AM 42.8 °F 36.2 °F 39.2 °F 87% 30.12 in 6.2 mi WSW 12.7 mph - N/A   Partly Cloudy
11:20 AM 44.6 °F 38.1 °F 41.0 °F 87% 30.12 in 6.2 mi WSW 13.8 mph - N/A   Partly Cloudy
11:50 AM 44.6 °F 38.4 °F 41.0 °F 87% 30.12 in 6.2 mi WSW 12.7 mph - N/A   Partly Cloudy
12:20 PM 44.6 °F 39.2 °F 41.0 °F 87% 30.12 in 6.2 mi WSW 10.4 mph - N/A   Partly Cloudy
12:50 PM 46.4 °F 41.1 °F 41.0 °F 81% 30.12 in 6.2 mi WSW 11.5 mph - N/A   Partly Cloudy
1:20 PM 44.6 °F 38.8 °F 41.0 °F 87% 30.09 in 6.2 mi WSW 11.5 mph - N/A   Scattered Clouds
1:50 PM 46.4 °F 41.9 °F 41.0 °F 81% 30.09 in 6.2 mi WSW 9.2 mph - N/A   Scattered Clouds
2:20 PM 46.4 °F 42.4 °F 41.0 °F 81% 30.09 in 6.2 mi West 8.1 mph - N/A   Scattered Clouds
2:50 PM 46.4 °F 41.5 °F 41.0 °F 81% 30.09 in 6.2 mi West 10.4 mph - N/A   Scattered Clouds
3:20 PM 44.6 °F 40.2 °F 41.0 °F 87% 30.09 in 6.2 mi WSW 8.1 mph - N/A   Scattered Clouds
3:50 PM 44.6 °F 39.2 °F 41.0 °F 87% 30.09 in 6.2 mi WSW 10.4 mph - N/A   Scattered Clouds
4:20 PM 44.6 °F 39.7 °F 41.0 °F 87% 30.09 in 6.2 mi WSW 9.2 mph - N/A   Scattered Clouds
4:50 PM 44.6 °F 39.2 °F 39.2 °F 81% 30.09 in 6.2 mi WSW 10.4 mph - N/A   Partly Cloudy
5:20 PM 42.8 °F 37.5 °F 39.2 °F 87% 30.09 in 6.2 mi WSW 9.2 mph - N/A   Partly Cloudy
5:50 PM 42.8 °F 38.0 °F 39.2 °F 87% 30.09 in 6.2 mi WSW 8.1 mph - N/A   Partly Cloudy
6:20 PM 42.8 °F 37.0 °F 39.2 °F 87% 30.09 in - WSW 10.4 mph - N/A   Clear
6:50 PM 41.0 °F 36.4 °F 39.2 °F 93% 30.09 in - WSW 6.9 mph - N/A   Clear
7:20 PM 41.0 °F 38.0 °F 37.4 °F 87% 30.09 in - West 4.6 mph - N/A   Clear
7:50 PM 41.0 °F 37.1 °F 37.4 °F 87% 30.09 in 6.2 mi SW 5.8 mph - N/A   Partly Cloudy
8:20 PM 41.0 °F 36.4 °F 37.4 °F 87% 30.06 in - WSW 6.9 mph - N/A   Clear
8:50 PM 41.0 °F 35.8 °F 37.4 °F 87% 30.06 in - WSW 8.1 mph - N/A   Clear
9:20 PM 39.2 °F 33.6 °F 37.4 °F 93% 30.06 in - WSW 8.1 mph - N/A   Clear
9:50 PM 41.0 °F 38.0 °F 37.4 °F 87% 30.06 in - West 4.6 mph - N/A   Clear
10:20 PM 39.2 °F 35.0 °F 37.4 °F 93% 30.06 in - WSW 5.8 mph - N/A   Clear
10:50 PM 37.4 °F 32.1 °F 35.6 °F 93% 30.06 in - WSW 6.9 mph - N/A   Clear
11:20 PM 39.2 °F 34.2 °F 37.4 °F 93% 30.04 in - WSW 6.9 mph - N/A   Clear
11:50 PM 39.2 °F 35.0 °F 37.4 °F 93% 30.04 in - West 5.8 mph - N/A   Clear